Location: Le Moustier
(44.1000°N, 6.5167°E)
Time: 06:41:29
(UTC+00:00)

IRS-P3 - Pass Details

Date: 13 December 2025
Orbit: 810 x 816 km, 99.0° (Epoch: 13 January)

Event Time Altitude Azimuth Distance (km) Brightness Sun altitude
Rises 16:54:38 0° 148° (SSE) 3,325 7.2 -10.2°
Reaches altitude 10° 16:57:01 10° 143° (SE) 2,396 6.4 -10.6°
Maximum altitude 17:02:07 50° 69° (ENE) 1,033 4.3 -11.5°
Drops below altitude 10° 17:07:14 10° 356° (N) 2,409 6.4 -12.3°
Sets 17:09:38 0° 351° (N) 3,344 7.2 -12.7°
